GW3481 Weather Reports


time (UTC)temp
C
wind
direction
speed
KPH
gust
KPH
rain 1hr
cm
rain 24hr
cm
rain mn
cm
humidity
%
barometer
mb
20260510203021 23 28 17.7 25.7 0.00 0.00 0.00 65 1017.1
20260510201523 23 62 14.5 27.4 0.00 0.00 0.00 65 1017.3
20260510200024 24 29 17.7 25.7 0.00 0.00 0.00 63 1017.3
20260510194526 25 49 12.9 22.5 0.00 0.00 0.00 61 1016.9
20260510193017 25 49 11.3 24.1 0.00 0.00 0.00 60 1016.9
20260510191526 25 29 11.3 16.1 0.00 0.00 0.00 60 1017.0
20260510190032 25 59 8.0 19.3 0.00 0.00 0.00 61 1017.0
20260510184527 25 57 8.0 16.1 0.00 0.00 0.00 62 1017.2
20260510183028 24 75 6.4 16.1 0.00 0.00 0.00 64 1017.3
20260510181518 24 61 6.4 12.9 0.00 0.00 0.00 64 1017.1
20260510180022 24 96 6.4 12.9 0.00 0.00 0.00 62 1017.2
20260510174523 24 70 6.4 16.1 0.00 0.00 0.00 61 1017.2
20260510173027 24 61 8.0 16.1 0.00 0.00 0.00 59 1017.3
20260510171537 24 57 4.8 16.1 0.00 0.00 0.00 61 1017.2
20260510170020 24 68 11.3 17.7 0.00 0.00 0.00 59 1017.3
20260510164524 23 79 6.4 14.5 0.00 0.00 0.00 60 1017.3
20260510163026 23 130 1.6 9.7 0.00 0.00 0.00 60 1017.4
20260510161525 22 128 0.0 6.4 0.00 0.00 0.00 57 1017.3
20260510160033 22 102 4.8 9.7 0.00 0.00 0.00 56 1017.4
20260510154520 22 136 0.0 4.8 0.00 0.00 0.00 58 1017.4
20260510153036 22 326 0.0 3.2 0.00 0.00 0.00 57 1017.4
20260510151528 21 326 0.0 4.8 0.00 0.00 0.00 60 1017.3
20260510150026 21 180 1.6 4.8 0.00 0.00 0.00 65 1017.1
20260510144529 20 200 0.0 4.8 0.00 0.00 0.00 66 1017.0
20260510143022 20 181 1.6 4.8 0.00 0.00 0.00 72 1016.9
20260510141527 19 181 0.0 4.8 0.00 0.00 0.00 74 1016.8
20260510140026 18 227 0.0 0.0 0.00 0.00 0.00 76 1016.6
20260510134526 18 227 0.0 3.2 0.00 0.00 0.00 78 1016.5
20260510133027 17 105 0.0 3.2 0.00 0.00 0.00 80 1016.4
20260510131523 17 104 0.0 1.6 0.00 0.00 0.00 79 1016.4
20260510130014 16 104 0.0 3.2 0.00 0.00 0.00 79 1016.5
20260510124514 16 104 3.2 4.8 0.00 0.00 0.00 79 1016.2
20260510123020 16 85 3.2 6.4 0.00 0.00 0.00 81 1016.2
20260510121524 15 166 0.0 3.2 0.00 0.00 0.00 84 1016.1
20260510120024 15 168 0.0 6.4 0.00 0.00 0.00 85 1016.1
20260510114527 14 292 1.6 4.8 0.00 0.00 0.00 86 1016.3
20260510113023 14 292 0.0 0.0 0.00 0.00 0.00 84 1015.7
20260510111522 14 292 0.0 0.0 0.00 0.00 0.00 86 1015.2
20260510110037 14 292 0.0 3.2 0.00 0.00 0.00 86 1014.9
20260510104528 13 292 0.0 3.2 0.00 0.00 0.00 87 1014.7
20260510103027 13 292 0.0 1.6 0.00 0.00 0.00 87 1014.3
20260510101518 13 292 0.0 3.2 0.00 0.00 0.00 86 1014.4
20260510100023 14 292 0.0 3.2 0.00 0.00 0.00 83 1014.3
20260510094506 14 292 0.0 6.4 0.00 0.00 0.00 83 1014.0
20260510093010 14 283 0.0 1.6 0.00 0.00 0.00 83 1014.1
20260510091514 15 283 3.2 6.4 0.00 0.00 0.00 83 1014.0
20260510090022 14 320 0.0 3.2 0.00 0.00 0.00 83 1013.7
20260510084504 15 320 0.0 0.0 0.00 0.00 0.00 84 1013.4
20260510083007 14 320 0.0 3.2 0.00 0.00 0.00 83 1013.3
20260510081514 15 320 0.0 0.0 0.00 0.00 0.00 83 1013.3
20260510080035 15 320 0.0 0.0 0.00 0.00 0.00 82 1013.4
20260510074526 15 320 0.0 0.0 0.00 0.00 0.00 83 1013.2
20260510073004 15 320 0.0 0.0 0.00 0.00 0.00 81 1013.1
20260510071515 15 320 0.0 0.0 0.00 0.00 0.00 80 1013.1
20260510070014 15 320 0.0 0.0 0.00 0.00 0.00 80 1013.2
20260510064518 16 320 0.0 0.0 0.00 0.00 0.00 77 1013.4
20260510063029 16 320 0.0 0.0 0.00 0.00 0.00 77 1013.7
20260510061524 16 320 0.0 3.2 0.00 0.00 0.00 75 1013.6
20260510060031 17 320 1.6 4.8 0.00 0.00 0.00 68 1013.4
20260510054519 17 290 0.0 3.2 0.00 0.00 0.00 68 1013.4
20260510053022 17 271 1.6 4.8 0.00 0.00 0.00 73 1013.3
20260510051526 17 271 0.0 1.6 0.00 0.00 0.00 71 1013.1
20260510050026 17 271 0.0 6.4 0.00 0.00 0.00 70 1013.1
20260510044513 17 271 1.6 3.2 0.00 0.00 0.00 68 1013.0
20260510043018 18 271 1.6 4.8 0.00 0.00 0.00 67 1012.9
20260510041526 18 271 1.6 3.2 0.00 0.00 0.00 68 1013.1
20260510040026 18 271 1.6 4.8 0.00 0.00 0.00 67 1012.9
20260510034528 18 271 1.6 4.8 0.00 0.00 0.00 64 1012.9
20260510033014 18 237 1.6 4.8 0.00 0.00 0.00 62 1012.9
20260510031525 19 237 1.6 4.8 0.00 0.00 0.00 62 1012.9
20260510030023 19 255 0.0 0.0 0.00 0.00 0.00 61 1012.8
20260510024528 19 255 0.0 0.0 0.00 0.00 0.00 62 1012.6
20260510023003 18 255 0.0 0.0 0.00 0.00 0.00 66 1012.5
20260510021514 20 255 0.0 3.2 0.00 0.00 0.00 60 1012.3
20260510020004 20 255 0.0 9.7 0.00 0.00 0.00 54 1012.1
20260510014510 20 227 0.0 3.2 0.00 0.00 0.00 60 1011.8
20260510013005 21 227 0.0 1.6 0.00 0.00 0.00 55 1011.8
20260510011506 22 227 0.0 3.2 0.00 0.00 0.00 39 1011.6
20260510010015 22 227 0.0 1.6 0.00 0.00 0.00 55 1011.5
20260510004505 22 227 0.0 3.2 0.00 0.00 0.00 46 1011.4
20260510003007 25 175 0.0 1.6 0.00 0.00 0.00 29 1011.0
20260510001507 26 175 0.0 0.0 0.00 0.00 0.00 32 1010.9
20260510000008 26 175 0.0 1.6 0.00 0.00 0.00 31 1010.9
20260509234510 26 176 0.0 3.2 0.00 0.00 0.00 31 1010.9
20260509233006 27 161 0.0 6.4 0.00 0.00 0.00 27 1010.7
20260509231510 27 192 1.6 8.0 0.00 0.00 0.00 28 1010.6
20260509230021 27 146 0.0 6.4 0.00 0.00 0.00 30 1010.6
20260509224510 27 266 0.0 6.4 0.00 0.00 0.00 27 1010.5
20260509223011 27 157 0.0 9.7 0.00 0.00 0.00 29 1010.6
20260509221513 27 258 3.2 9.7 0.00 0.00 0.00 28 1010.5
20260509220011 27 252 3.2 8.0 0.00 0.00 0.00 27 1010.6
20260509214513 27 230 4.8 11.3 0.00 0.00 0.00 28 1010.6
20260509213018 27 240 1.6 16.1 0.00 0.00 0.00 26 1010.7
20260509211515 27 150 3.2 9.7 0.00 0.00 0.00 27 1010.8
20260509210014 27 171 3.2 9.7 0.00 0.00 0.00 28 1010.8
20260509204515 27 180 1.6 12.9 0.00 0.00 0.00 30 1010.8